N709LP KPWM-KROC

Flight info

Callsign N709LP
Flight time 1h 5m
Altitude 40000
Route ALIEH HSKEL BAUER SYR
Aircraft CL60/M-SBDE1E2E3FGHIJ1J4J5J7M3RWXYZ/LB1V1D1

Departure

Time 2026-05-05 04:33
Airport Portland International Jetport (KPWM)

Arrival

Time 2026-05-05 05:38
Airport Frederick Douglass Greater Rochester International Airport (KROC)
Time Latitude Longitude Altitude Speed Heading
2026-05-05 02:58 43.64976 -70.30806 56 ft 0 kts 178°
2026-05-05 04:28 43.64959 -70.30788 55 ft 0 kts 107°
2026-05-05 04:29 43.64958 -70.30786 55 ft 1 kts 107°
2026-05-05 04:29 43.64957 -70.30745 54 ft 3 kts 88°
2026-05-05 04:29 43.64967 -70.30718 53 ft 4 kts 33°
2026-05-05 04:29 43.65005 -70.30716 52 ft 7 kts 356°
2026-05-05 04:30 43.65075 -70.30719 51 ft 7 kts 359°
2026-05-05 04:30 43.65142 -70.30727 50 ft 11 kts 342°
2026-05-05 04:30 43.65193 -70.30752 50 ft 6 kts 340°
2026-05-05 04:30 43.65250 -70.30781 50 ft 10 kts 340°
2026-05-05 04:31 43.65311 -70.30810 50 ft 6 kts 340°
2026-05-05 04:31 43.65335 -70.30823 50 ft 0 kts 340°
2026-05-05 04:32 43.65365 -70.30837 50 ft 6 kts 340°
2026-05-05 04:32 43.65419 -70.30806 46 ft 12 kts 68°
2026-05-05 04:32 43.65413 -70.30722 42 ft 9 kts 157°
2026-05-05 04:32 43.65263 -70.30660 43 ft 60 kts 164°
2026-05-05 04:33 43.64437 -70.30312 122 ft 173 kts 165°
2026-05-05 04:33 43.63231 -70.29741 1328 ft 192 kts 167°
2026-05-05 04:33 43.61966 -70.29199 2678 ft 199 kts 178°
2026-05-05 04:33 43.60633 -70.28959 4054 ft 202 kts 185°
2026-05-05 04:34 43.59210 -70.28960 5184 ft 217 kts 191°
2026-05-05 04:34 43.57602 -70.29246 5714 ft 249 kts 197°
2026-05-05 04:34 43.55860 -70.29862 6474 ft 267 kts 203°
2026-05-05 04:34 43.54104 -70.30778 7639 ft 269 kts 209°
2026-05-05 04:35 43.52438 -70.31930 8737 ft 272 kts 215°
2026-05-05 04:35 43.50801 -70.33367 9570 ft 292 kts 220°
2026-05-05 04:35 43.49138 -70.35198 10142 ft 317 kts 229°
2026-05-05 04:35 43.48004 -70.37714 11422 ft 308 kts 256°
2026-05-05 04:36 43.47892 -70.40551 12638 ft 305 kts 282°
2026-05-05 04:36 43.48808 -70.43188 13690 ft 312 kts 308°
2026-05-05 04:36 43.50489 -70.45104 14712 ft 321 kts 323°
2026-05-05 04:36 43.52381 -70.46806 15600 ft 325 kts 324°
2026-05-05 04:37 43.54268 -70.48472 16593 ft 327 kts 324°
2026-05-05 04:37 43.56215 -70.50181 17523 ft 329 kts 324°
2026-05-05 04:37 43.58132 -70.51868 18322 ft 335 kts 324°
2026-05-05 04:37 43.60115 -70.53612 19324 ft 340 kts 324°
2026-05-05 04:38 43.61910 -70.55650 20398 ft 336 kts 307°
2026-05-05 04:38 43.63173 -70.58367 21368 ft 336 kts 299°
2026-05-05 04:38 43.64343 -70.61158 22230 ft 342 kts 300°
2026-05-05 04:38 43.65554 -70.64003 23098 ft 346 kts 300°
2026-05-05 04:39 43.66713 -70.66686 23845 ft 351 kts 300°
2026-05-05 04:39 43.67992 -70.69607 24700 ft 355 kts 300°
2026-05-05 04:39 43.69300 -70.72552 25519 ft 359 kts 301°
2026-05-05 04:39 43.70625 -70.75493 26330 ft 362 kts 301°
2026-05-05 04:40 43.71981 -70.78464 27066 ft 365 kts 302°
2026-05-05 04:40 43.73362 -70.81453 27746 ft 369 kts 302°
2026-05-05 04:40 43.74799 -70.84525 28385 ft 373 kts 302°
2026-05-05 04:40 43.76244 -70.87573 28989 ft 377 kts 303°
2026-05-05 04:41 43.77690 -70.90588 29587 ft 380 kts 303°
2026-05-05 04:41 43.79176 -70.93654 30161 ft 382 kts 304°
2026-05-05 04:41 43.80700 -70.96761 30694 ft 386 kts 304°
2026-05-05 04:41 43.82227 -70.99843 31216 ft 388 kts 304°
2026-05-05 04:42 43.83791 -71.02968 31675 ft 390 kts 304°
2026-05-05 04:42 43.85353 -71.06057 32091 ft 393 kts 305°
2026-05-05 04:42 43.86945 -71.09173 32523 ft 395 kts 305°
2026-05-05 04:42 43.88552 -71.12289 32948 ft 396 kts 306°
2026-05-05 04:43 43.90012 -71.15505 33317 ft 397 kts 295°
2026-05-05 04:43 43.90704 -71.19267 33730 ft 400 kts 277°
2026-05-05 04:43 43.90407 -71.23086 34195 ft 408 kts 259°
2026-05-05 04:43 43.89144 -71.26659 34708 ft 419 kts 241°
2026-05-05 04:44 43.87055 -71.29524 35146 ft 433 kts 223°
2026-05-05 04:44 43.84482 -71.31813 35421 ft 436 kts 221°
2026-05-05 04:44 43.81953 -71.34171 35676 ft 436 kts 222°
2026-05-05 04:44 43.79458 -71.36530 35995 ft 434 kts 222°
2026-05-05 04:45 43.76789 -71.38601 36352 ft 443 kts 208°
2026-05-05 04:45 43.73792 -71.39635 36692 ft 451 kts 197°
2026-05-05 04:45 43.70672 -71.40341 37026 ft 450 kts 196°
2026-05-05 04:45 43.67580 -71.41016 37369 ft 449 kts 196°
2026-05-05 04:46 43.64489 -71.41695 37693 ft 447 kts 196°
2026-05-05 04:46 43.61401 -71.42392 37982 ft 445 kts 198°
2026-05-05 04:46 43.58515 -71.43748 38253 ft 428 kts 216°
2026-05-05 04:46 43.56239 -71.46254 38441 ft 413 kts 236°
2026-05-05 04:47 43.54645 -71.49487 38557 ft 409 kts 245°
2026-05-05 04:47 43.53196 -71.52885 38739 ft 409 kts 245°
2026-05-05 04:47 43.51774 -71.56273 38974 ft 408 kts 245°
2026-05-05 04:47 43.50387 -71.59724 39223 ft 406 kts 248°
2026-05-05 04:48 43.49120 -71.63187 39453 ft 404 kts 249°
2026-05-05 04:48 43.48116 -71.66214 39659 ft 402 kts 252°
2026-05-05 04:48 43.47455 -71.69652 39822 ft 397 kts 265°
2026-05-05 04:49 43.46727 -71.77252 39841 ft 401 kts 264°
2026-05-05 04:49 43.45916 -71.84855 39853 ft 400 kts 264°
2026-05-05 04:50 43.45100 -71.92416 39840 ft 397 kts 264°
2026-05-05 04:50 43.44278 -71.99953 39860 ft 396 kts 264°
2026-05-05 04:51 43.43450 -72.07478 39828 ft 396 kts 264°
2026-05-05 04:51 43.42617 -72.14988 39836 ft 396 kts 264°
2026-05-05 04:52 43.41779 -72.22475 39846 ft 395 kts 264°
2026-05-05 04:52 43.40937 -72.29948 39842 ft 396 kts 264°
2026-05-05 04:53 43.40086 -72.37450 39828 ft 396 kts 264°
2026-05-05 04:53 43.39228 -72.44961 39842 ft 396 kts 264°
2026-05-05 04:54 43.38555 -72.52492 39818 ft 394 kts 269°
2026-05-05 04:54 43.38243 -72.60062 39839 ft 393 kts 269°
2026-05-05 04:55 43.37921 -72.67604 39826 ft 394 kts 268°
2026-05-05 04:55 43.37588 -72.75135 39824 ft 394 kts 269°
2026-05-05 04:56 43.37247 -72.82655 39845 ft 393 kts 268°
2026-05-05 04:56 43.36898 -72.90157 39831 ft 392 kts 268°
2026-05-05 04:57 43.36541 -72.97669 39836 ft 392 kts 268°
2026-05-05 04:57 43.36247 -73.03763 39823 ft 391 kts 268°
2026-05-05 04:58 43.35901 -73.10820 39815 ft 391 kts 269°
2026-05-05 04:58 43.35528 -73.18300 39818 ft 391 kts 268°
2026-05-05 04:59 43.35150 -73.25771 39811 ft 392 kts 268°
2026-05-05 04:59 43.34766 -73.33257 39807 ft 392 kts 268°
2026-05-05 05:00 43.34376 -73.40738 39795 ft 392 kts 268°
2026-05-05 05:00 43.33982 -73.48204 39801 ft 391 kts 268°
2026-05-05 05:01 43.33583 -73.55672 39806 ft 391 kts 268°
2026-05-05 05:01 43.33179 -73.63131 39793 ft 392 kts 268°
2026-05-05 05:02 43.32769 -73.70612 39798 ft 392 kts 268°
2026-05-05 05:02 43.32353 -73.78101 39788 ft 392 kts 268°
2026-05-05 05:03 43.31932 -73.85603 39774 ft 391 kts 268°
2026-05-05 05:03 43.31508 -73.93059 39777 ft 391 kts 267°
2026-05-05 05:04 43.31077 -74.00555 39786 ft 391 kts 268°
2026-05-05 05:04 43.30644 -74.07984 39781 ft 391 kts 268°
2026-05-05 05:05 43.30206 -74.15438 39796 ft 391 kts 268°
2026-05-05 05:05 43.29762 -74.22887 39784 ft 391 kts 267°
2026-05-05 05:06 43.29311 -74.30379 39785 ft 391 kts 267°
2026-05-05 05:06 43.28857 -74.37838 39785 ft 391 kts 267°
2026-05-05 05:07 43.28399 -74.45297 39791 ft 392 kts 267°
2026-05-05 05:07 43.27935 -74.52764 39788 ft 391 kts 267°
2026-05-05 05:08 43.27465 -74.60226 39785 ft 392 kts 267°
2026-05-05 05:08 43.26989 -74.67722 39796 ft 392 kts 266°
2026-05-05 05:09 43.26509 -74.75215 39783 ft 392 kts 266°
2026-05-05 05:09 43.26024 -74.82698 39771 ft 392 kts 266°
2026-05-05 05:09 43.25780 -74.86443 39412 ft 398 kts 267°
2026-05-05 05:10 43.25531 -74.90256 38905 ft 396 kts 266°
2026-05-05 05:10 43.25284 -74.94013 38371 ft 395 kts 266°
2026-05-05 05:10 43.25037 -74.97754 37860 ft 395 kts 267°
2026-05-05 05:10 43.24786 -75.01539 37350 ft 395 kts 267°
2026-05-05 05:11 43.24537 -75.05274 36869 ft 396 kts 267°
2026-05-05 05:11 43.24284 -75.09053 36354 ft 398 kts 267°
2026-05-05 05:11 43.24030 -75.12831 35840 ft 397 kts 267°
2026-05-05 05:11 43.23777 -75.16592 35301 ft 399 kts 268°
2026-05-05 05:12 43.23518 -75.20401 34780 ft 399 kts 268°
2026-05-05 05:12 43.23258 -75.24225 34229 ft 401 kts 267°
2026-05-05 05:12 43.22998 -75.28027 33719 ft 401 kts 268°
2026-05-05 05:12 43.22736 -75.31846 33174 ft 403 kts 267°
2026-05-05 05:13 43.22470 -75.35683 32646 ft 400 kts 267°
2026-05-05 05:13 43.22205 -75.39493 32113 ft 397 kts 267°
2026-05-05 05:13 43.21946 -75.43203 31586 ft 393 kts 267°
2026-05-05 05:13 43.21684 -75.46925 31078 ft 389 kts 267°
2026-05-05 05:14 43.21421 -75.50645 30539 ft 386 kts 266°
2026-05-05 05:14 43.21162 -75.54301 30033 ft 381 kts 267°
2026-05-05 05:14 43.20904 -75.57925 29523 ft 378 kts 267°
2026-05-05 05:14 43.20648 -75.61494 29028 ft 375 kts 266°
2026-05-05 05:15 43.20389 -75.65094 28514 ft 373 kts 266°
2026-05-05 05:15 43.20134 -75.68622 28021 ft 370 kts 266°
2026-05-05 05:15 43.19880 -75.72106 27524 ft 367 kts 266°
2026-05-05 05:15 43.19627 -75.75581 27040 ft 365 kts 266°
2026-05-05 05:16 43.19374 -75.79028 26566 ft 362 kts 266°
2026-05-05 05:16 43.19119 -75.82488 26076 ft 360 kts 266°
2026-05-05 05:16 43.18869 -75.85866 25607 ft 357 kts 266°
2026-05-05 05:16 43.18620 -75.89217 25130 ft 355 kts 266°
2026-05-05 05:17 43.18369 -75.92588 24651 ft 352 kts 265°
2026-05-05 05:17 43.18118 -75.95935 24185 ft 349 kts 265°
2026-05-05 05:17 43.17869 -75.99249 23729 ft 346 kts 265°
2026-05-05 05:17 43.17624 -76.02497 23274 ft 344 kts 265°
2026-05-05 05:18 43.17374 -76.05793 22820 ft 342 kts 265°
2026-05-05 05:18 43.17128 -76.09036 22349 ft 340 kts 265°
2026-05-05 05:18 43.16882 -76.12270 21900 ft 342 kts 265°
2026-05-05 05:18 43.16635 -76.15497 21451 ft 344 kts 265°
2026-05-05 05:19 43.16383 -76.18780 20987 ft 343 kts 264°
2026-05-05 05:19 43.16324 -76.22045 20496 ft 342 kts 273°
2026-05-05 05:19 43.16640 -76.25253 20006 ft 340 kts 278°
2026-05-05 05:19 43.17044 -76.28445 19558 ft 337 kts 278°
2026-05-05 05:20 43.17439 -76.31625 19101 ft 337 kts 278°
2026-05-05 05:20 43.17827 -76.34785 18669 ft 333 kts 278°
2026-05-05 05:20 43.18209 -76.37917 18210 ft 333 kts 277°
2026-05-05 05:20 43.18574 -76.40940 17809 ft 332 kts 277°
2026-05-05 05:21 43.18945 -76.44034 17463 ft 328 kts 277°
2026-05-05 05:21 43.19318 -76.47162 17097 ft 330 kts 277°
2026-05-05 05:21 43.19682 -76.50234 16700 ft 327 kts 277°
2026-05-05 05:21 43.20042 -76.53291 16270 ft 325 kts 277°
2026-05-05 05:22 43.20400 -76.56346 15846 ft 323 kts 277°
2026-05-05 05:22 43.20758 -76.59415 15409 ft 321 kts 277°
2026-05-05 05:22 43.21104 -76.62401 14997 ft 319 kts 277°
2026-05-05 05:22 43.21453 -76.65427 14564 ft 317 kts 277°
2026-05-05 05:23 43.21788 -76.68328 14152 ft 315 kts 277°
2026-05-05 05:23 43.22131 -76.71318 13731 ft 312 kts 277°
2026-05-05 05:23 43.22465 -76.74246 13329 ft 309 kts 277°
2026-05-05 05:23 43.22792 -76.77112 12916 ft 299 kts 277°
2026-05-05 05:24 43.23108 -76.79909 12544 ft 289 kts 276°
2026-05-05 05:24 43.23412 -76.82604 12148 ft 282 kts 276°
2026-05-05 05:24 43.23709 -76.85263 11763 ft 275 kts 276°
2026-05-05 05:24 43.23997 -76.87844 11426 ft 267 kts 276°
2026-05-05 05:25 43.24273 -76.90331 11076 ft 261 kts 276°
2026-05-05 05:25 43.24543 -76.92780 10733 ft 255 kts 276°
2026-05-05 05:25 43.24802 -76.95132 10405 ft 248 kts 276°
2026-05-05 05:25 43.25059 -76.97475 10080 ft 245 kts 276°
2026-05-05 05:26 43.25313 -76.99805 9734 ft 246 kts 275°
2026-05-05 05:26 43.25568 -77.02137 9398 ft 245 kts 276°
2026-05-05 05:26 43.25821 -77.04451 9086 ft 246 kts 276°
2026-05-05 05:26 43.26071 -77.06742 8764 ft 243 kts 276°
2026-05-05 05:27 43.26322 -77.09033 8438 ft 241 kts 276°
2026-05-05 05:27 43.26572 -77.11323 8117 ft 240 kts 276°
2026-05-05 05:27 43.27073 -77.15831 7483 ft 236 kts 276°
2026-05-05 05:28 43.27330 -77.18046 7169 ft 235 kts 276°
2026-05-05 05:28 43.27589 -77.20251 6873 ft 234 kts 276°
2026-05-05 05:28 43.27845 -77.22446 6574 ft 232 kts 276°
2026-05-05 05:28 43.28097 -77.24636 6249 ft 231 kts 276°
2026-05-05 05:29 43.28352 -77.26839 5908 ft 231 kts 276°
2026-05-05 05:29 43.28608 -77.29007 5603 ft 230 kts 276°
2026-05-05 05:29 43.28867 -77.31177 5314 ft 229 kts 276°
2026-05-05 05:29 43.29129 -77.33340 4998 ft 228 kts 276°
2026-05-05 05:30 43.29390 -77.35469 4671 ft 221 kts 276°
2026-05-05 05:30 43.29645 -77.37512 4352 ft 216 kts 276°
2026-05-05 05:30 43.29900 -77.39542 4007 ft 212 kts 276°
2026-05-05 05:30 43.30157 -77.41532 3680 ft 209 kts 277°
2026-05-05 05:31 43.30412 -77.43470 3342 ft 206 kts 276°
2026-05-05 05:31 43.30638 -77.45327 3239 ft 183 kts 271°
2026-05-05 05:31 43.30321 -77.46967 3174 ft 179 kts 243°
2026-05-05 05:31 43.29673 -77.48421 3158 ft 178 kts 240°
2026-05-05 05:32 43.29007 -77.49837 3145 ft 167 kts 239°
2026-05-05 05:32 43.28391 -77.51141 3078 ft 160 kts 239°
2026-05-05 05:32 43.27792 -77.52423 2957 ft 156 kts 239°
2026-05-05 05:32 43.27208 -77.53685 2920 ft 154 kts 240°
2026-05-05 05:33 43.26619 -77.54934 2930 ft 155 kts 237°
2026-05-05 05:33 43.25885 -77.55952 2912 ft 146 kts 223°
2026-05-05 05:33 43.25034 -77.56717 2925 ft 142 kts 219°
2026-05-05 05:33 43.24191 -77.57417 2940 ft 139 kts 218°
2026-05-05 05:34 43.23376 -77.58098 2979 ft 126 kts 219°
2026-05-05 05:34 43.22660 -77.58692 2936 ft 115 kts 220°
2026-05-05 05:34 43.21988 -77.59262 2732 ft 110 kts 219°
2026-05-05 05:34 43.21350 -77.59808 2559 ft 104 kts 219°
2026-05-05 05:35 43.20729 -77.60342 2419 ft 105 kts 219°
2026-05-05 05:35 43.20107 -77.60882 2257 ft 106 kts 217°
2026-05-05 05:35 43.19454 -77.61370 2056 ft 110 kts 214°
2026-05-05 05:35 43.18780 -77.61897 1964 ft 108 kts 216°
2026-05-05 05:36 43.18143 -77.62476 1846 ft 108 kts 216°
2026-05-05 05:36 43.17486 -77.63020 1669 ft 110 kts 214°
2026-05-05 05:36 43.16824 -77.63593 1439 ft 113 kts 215°
2026-05-05 05:36 43.16119 -77.64170 1397 ft 117 kts 216°
2026-05-05 05:37 43.15453 -77.64758 1280 ft 114 kts 215°
2026-05-05 05:37 43.14794 -77.65307 1128 ft 114 kts 214°
2026-05-05 05:37 43.14140 -77.65860 958 ft 118 kts 213°
2026-05-05 05:37 43.13417 -77.66463 800 ft 123 kts 213°
2026-05-05 05:38 43.12696 -77.67078 637 ft 120 kts 213°
2026-05-05 05:38 43.11986 -77.67679 551 ft 114 kts 213°
2026-05-05 05:38 43.11391 -77.68181 532 ft 62 kts 212°
2026-05-05 05:38 43.11236 -77.68315 529 ft 11 kts 210°
2026-05-05 05:39 43.11147 -77.68359 529 ft 15 kts 187°
2026-05-05 05:39 43.11076 -77.68327 529 ft 9 kts 115°
2026-05-05 05:39 43.11110 -77.68241 529 ft 13 kts 31°
2026-05-05 05:39 43.11186 -77.68179 529 ft 11 kts 32°
2026-05-05 05:40 43.11264 -77.68111 531 ft 14 kts 30°
2026-05-05 05:40 43.11341 -77.68048 532 ft 8 kts 31°
2026-05-05 05:40 43.11404 -77.67994 532 ft 12 kts 33°
2026-05-05 05:40 43.11491 -77.67920 534 ft 16 kts 31°
2026-05-05 05:41 43.11592 -77.67835 537 ft 14 kts 32°
2026-05-05 05:41 43.11685 -77.67754 539 ft 15 kts 31°
2026-05-05 05:41 43.11757 -77.67692 540 ft 10 kts 32°
2026-05-05 05:41 43.11827 -77.67636 542 ft 12 kts 30°
2026-05-05 05:42 43.11883 -77.67545 545 ft 11 kts 61°
2026-05-05 05:42 43.11918 -77.67471 547 ft 3 kts 52°
2026-05-05 05:42 43.11947 -77.67420 548 ft 11 kts 52°
2026-05-05 05:42 43.11958 -77.67316 550 ft 13 kts 111°
2026-05-05 05:43 43.11922 -77.67180 550 ft 17 kts 109°
2026-05-05 05:43 43.11876 -77.67006 549 ft 21 kts 107°
2026-05-05 05:43 43.11836 -77.66849 548 ft 15 kts 110°
2026-05-05 05:43 43.11795 -77.66698 545 ft 19 kts 111°
2026-05-05 05:44 43.11773 -77.66589 544 ft 11 kts 84°
2026-05-05 05:44 43.11809 -77.66472 541 ft 13 kts 65°
2026-05-05 05:44 43.11844 -77.66376 540 ft 9 kts 64°
2026-05-05 05:44 43.11881 -77.66273 540 ft 14 kts 64°
2026-05-05 05:45 43.11933 -77.66130 538 ft 17 kts 64°
2026-05-05 05:45 43.11972 -77.66019 538 ft 8 kts 63°
2026-05-05 05:45 43.11987 -77.65974 538 ft 2 kts 84°
2026-05-05 05:45 43.11969 -77.65942 538 ft 5 kts 150°
2026-05-05 05:46 43.11963 -77.65938 538 ft 0 kts 151°
2026-05-05 05:46 43.11956 -77.65933 538 ft 0 kts 151°
2026-05-05 05:46 43.11956 -77.65932 538 ft 1 kts 151°
2026-05-05 05:46 43.11932 -77.65896 537 ft 8 kts 70°
2026-05-05 05:47 43.11952 -77.65844 538 ft 3 kts 63°
2026-05-05 05:47 43.11958 -77.65816 537 ft 4 kts 88°
2026-05-05 05:47 43.11959 -77.65803 537 ft 4 kts 56°
2026-05-05 05:47 43.11974 -77.65802 538 ft 0 kts 251°
2026-05-05 05:48 43.11973 -77.65803 538 ft 0 kts 241°
2026-05-05 05:48 43.11973 -77.65804 538 ft 0 kts 240°